Regional Weather Roundup
Issued by NWS

Home | Current Version | Previous Version | Text Only | Print | Product List | Glossary Off
Versions: 1 2 3 4 5 6 7 8 9 10 11 12 13 14 15 16 17 18 19 20 21 22 23 24 25 26 27 28 29 30 31 32 33 34 35 36 37 38 39 40 41 42 43 44 45 46 47 48 49 50

000
ASUS45 KBOI 221810
RWRID

IDAHO REGIONAL WEATHER ROUNDUP
NATIONAL WEATHER SERVICE BOISE ID
1200 PM MDT FRI MAY 22 2015

NOTE: "FAIR" INDICATES FEW OR NO CLOUDS BELOW 12000 FEET
WITH NO SIGNIFICANT WEATHER AND/OR OBSTRUCTIONS TO VISIBILITY

IDZ012-014-221900-
SOUTHWEST IDAHO


CITY           SKY/WX    TMP DP  RH WIND       PRES   REMARKS
BOISE          PTSUNNY   66  50  56 CALM      29.89F
CALDWELL       MOSUNNY   66  48  52 N3        29.90S
MOUNTAIN HOME  MOSUNNY   65  46  48 E14       29.90S
$$

IDZ016-017-221900-
SOUTHCENTRAL IDAHO


CITY           SKY/WX    TMP DP  RH WIND       PRES   REMARKS
BURLEY         MOSUNNY   62  48  60 VRB5      29.89F
JEROME         PTSUNNY   57  48  72 NW6       29.92F
TWIN FALLS     CLOUDY    59  47  64 CALM      29.90F
$$

IDZ019>023-221900-
SOUTHEAST IDAHO


CITY           SKY/WX    TMP DP  RH WIND       PRES   REMARKS
IDAHO FALLS    PTSUNNY   62  43  49 N7        29.91F
POCATELLO      PTSUNNY   61  50  67 NW7       29.91F
REXBURG        CLOUDY    61  41  47 W3        29.92F
$$

IDZ006-010-011-018-031-032-221900-
CENTRAL IDAHO MOUNTAINS


CITY           SKY/WX    TMP DP  RH WIND       PRES   REMARKS
MCCALL         MOSUNNY   58  45  62 VRB3      29.91F
HAILEY         LGT RAIN  52  46  82 SE13      29.96F
STANLEY          N/A     48  39  71 CALM      30.00F
SALMON         PTSUNNY   61  45  55 SW3       29.89F
CHALLIS        PTSUNNY   60  43  53 NE7       29.92F
$$

IDZ002-004-006-007-026-221900-
NORTHERN IDAHO


CITY           SKY/WX    TMP DP  RH WIND       PRES   REMARKS
LEWISTON       SUNNY     72  54  53 VRB3      29.84F
LOWELL           N/A     71  48  43 N3        29.83F
COEUR D`ALENE  SUNNY     73  46  38 NW5       29.85F
MULLAN PASS    MOSUNNY   58  38  47 VRB5      29.99F
$$


USA.gov is the U.S. government's official web portal to all federal, state and local government web resources and services.